Content
SEND FEEDBACK

Daily
Averages
Monthly
Summary
Canada

VANCOUVER, BRITISH COLUMBIA


Home > North America > Canada > British Columbia
Elevation: 7 feet     Latitude: 49 11N     Longitude: 123 10W

WEATHER
 
SELECT A DAY
Number of Records: 249,332;   Date Range: 5/15/97 - 7/30/14
 
SHARE

PRINT THIS DATA

[ ← Previous Day ]
WEATHER ALMANAC - JANUARY 18, 2013
[ Next Day → ]
[ °C ]   °F
Weather ElementAverageHighLow
Temperature37 °F39.2 °F (11:35 am)32 °F (12:35 am)
Dewpoint36 °F37.4 °F (8:15 am)32 °F (12:35 am)
Humidity96.3 %100 % (12:35 am)87 % (1:35 pm)
Barometer30.30 in30.34 in (10:15 pm)30.26 in (5:35 am)
Wind Speed0.6 mph4.6 mph (8:35 am)
Weather ElementAverage
Visibility4.2 mi
Wind DirectionNNE (23.4 °)

Weather ElementTotal
Precipitation---
Heating Degree Days29.4 (Base 65)
Averaged from 64 records on January 18, 2013
WEATHER CONDITIONS BREAKOUT
WIND DIRECTION BREAKOUT
WEATHER BY HOUR - JANUARY 18, 2013
[ °C ]   °F
Local TimeTemperatureDewpointHumidityBarometerVisibilityWind DirectionWind SpeedGust SpeedPrecipitationEventsConditions
12:35 AM32.0 °F32.0 °F100 %30.28 in0.2 miNorthFogFog
12:55 AM33.8 °F33.8 °F100 %30.28 in0.2 miCalmFogFog
1:15 AM35.6 °F35.6 °F100 %30.28 in0.5 miCalmFogFog
1:35 AM33.8 °F33.8 °F100 %30.28 in0.2 miCalmFogFog
1:55 AM35.6 °F35.6 °F100 %30.28 in0.5 miCalmFogFog
2:15 AM35.6 °F35.6 °F100 %30.28 in0.5 miCalmFogFog
2:35 AM35.6 °F35.6 °F100 %30.28 in0.2 miCalmFogFog
2:55 AM35.6 °F35.6 °F100 %30.27 in0.5 miCalmFogFog
3:15 AM35.6 °F35.6 °F100 %30.28 in0.2 miCalmFogFog
3:35 AM35.6 °F35.6 °F100 %30.28 in0.5 miCalmFogFog
3:55 AM35.6 °F35.6 °F100 %30.27 in1.2 miCalmOvercast
4:15 AM35.6 °F35.6 °F100 %30.27 in4.0 miCalmOvercast
4:35 AM35.6 °F35.6 °F100 %30.27 in3.0 miCalmOvercast
4:55 AM35.6 °F35.6 °F100 %30.27 in4.0 miCalmOvercast
5:15 AM35.6 °F35.6 °F100 %30.27 in4.0 miCalmOvercast
5:35 AM35.6 °F35.6 °F100 %30.26 in4.0 miCalmOvercast
5:55 AM35.6 °F35.6 °F100 %30.26 in3.0 miCalmOvercast
6:15 AM35.6 °F35.6 °F100 %30.26 in3.0 miCalmOvercast
6:55 AM35.6 °F35.6 °F100 %30.26 in3.0 miCalmOvercast
7:15 AM35.6 °F35.6 °F100 %30.26 in3.0 miCalmOvercast
7:35 AM35.6 °F35.6 °F100 %30.27 in3.0 miCalmOvercast
7:55 AM35.6 °F35.6 °F100 %30.27 in3.0 miCalmOvercast
8:15 AM37.4 °F37.4 °F100 %30.27 in4.0 miNorthOvercast
8:35 AM37.4 °F37.4 °F100 %30.28 in3.0 miEast (90°)4.6 mphOvercast
8:55 AM37.4 °F37.4 °F100 %30.29 in3.0 miESE (110°)3.5 mphOvercast
9:15 AM37.4 °F37.4 °F100 %30.29 in3.0 miCalmOvercast
9:55 AM37.4 °F37.4 °F100 %30.29 in5.0 miCalmScattered Clouds
10:15 AM37.4 °F37.4 °F100 %30.30 in4.0 miCalmMostly Cloudy
10:35 AM37.4 °F37.4 °F100 %30.30 in3.0 miCalmOvercast
10:55 AM37.4 °F37.4 °F100 %30.31 in3.0 miCalmOvercast
11:15 AM37.4 °F37.4 °F100 %30.31 in5.0 miCalmOvercast
11:35 AM39.2 °F37.4 °F93 %30.32 in6.0 miENE (60°)3.5 mphOvercast
11:55 AM37.4 °F35.6 °F93 %30.31 in5.0 miCalmOvercast
12:15 PM37.4 °F35.6 °F93 %30.31 in5.0 miEast (100°)3.5 mphMostly Cloudy
12:35 PM37.4 °F37.4 °F100 %30.30 in5.0 miENE (60°)3.5 mphOvercast
12:55 PM39.2 °F37.4 °F93 %30.30 in5.0 miCalmOvercast
1:15 PM39.2 °F37.4 °F93 %30.30 in5.0 miNE (50°)4.6 mphOvercast
1:35 PM39.2 °F35.6 °F87 %30.30 in7.0 miCalmOvercast
2:15 PM39.2 °F35.6 °F87 %30.30 in7.0 miCalmOvercast
2:35 PM39.2 °F35.6 °F87 %30.30 in8.0 miCalmOvercast
2:55 PM39.2 °F35.6 °F87 %30.30 in7.0 miCalmOvercast
3:15 PM39.2 °F35.6 °F87 %30.30 in8.0 miCalmOvercast
3:55 PM39.2 °F35.6 °F87 %30.31 in8.0 miCalmOvercast
4:15 PM39.2 °F35.6 °F87 %30.31 in7.0 miNorth (360°)4.6 mphOvercast
4:35 PM39.2 °F35.6 °F87 %30.31 in8.0 miCalmOvercast
4:55 PM39.2 °F35.6 °F87 %30.30 in8.0 miNNW (340°)4.6 mphOvercast
5:15 PM39.2 °F35.6 °F87 %30.30 in10.0 miNNW (330°)3.5 mphOvercast
5:35 PM39.2 °F35.6 °F87 %30.30 in10.0 miCalmOvercast
6:15 PM39.2 °F35.6 °F87 %30.30 in10.0 miCalmOvercast
6:35 PM39.2 °F35.6 °F87 %30.30 in10.0 miNorthOvercast
7:15 PM39.2 °F35.6 °F87 %30.30 in7.0 miCalmOvercast
7:35 PM37.4 °F37.4 °F100 %30.31 in5.0 miCalmOvercast
7:55 PM37.4 °F37.4 °F100 %30.31 in5.0 miCalmOvercast
8:15 PM37.4 °F37.4 °F100 %30.31 in5.0 miCalmOvercast
8:35 PM37.4 °F37.4 °F100 %30.31 in5.0 miCalmOvercast
8:55 PM37.4 °F37.4 °F100 %30.32 in5.0 miCalmOvercast
9:15 PM37.4 °F37.4 °F100 %30.32 in4.0 miCalmOvercast
9:35 PM37.4 °F35.6 °F93 %30.33 in5.0 miCalmOvercast
9:55 PM37.4 °F35.6 °F93 %30.33 in3.0 miCalmMostly Cloudy
10:15 PM35.6 °F35.6 °F100 %30.34 in3.0 miCalmMostly Cloudy
10:35 PM35.6 °F35.6 °F100 %30.33 in3.0 miCalmOvercast
11:15 PM37.4 °F35.6 °F93 %30.34 in2.0 miCalmOvercast
11:35 PM35.6 °F35.6 °F100 %30.34 in2.0 miCalmOvercast
11:55 PM35.6 °F35.6 °F100 %30.34 in2.5 miCalmOvercast
Hourly data recorded from CZBB, located miles away from Vancouver, British Columbia







STORIES FROM OUR PARTNERS